Time,TemperatureF,DewpointF,PressureIn,WindDirection,WindDirectionDegrees,WindSpeedMPH,WindSpeedGustMPH,Humidity,HourlyPrecipIn,Conditions,Clouds,dailyrainin,SoftwareType,DateUTC
2013-11-09 00:01:00,33.8,31.7,30.29,South,177,0.0,0.0,92,0.00,,,0.00,Wunderground v.1.15,2013-11-09 05:01:00,
2013-11-09 00:02:00,33.8,32.0,30.29,South,177,0.0,0.0,93,0.00,,,0.00,Wunderground v.1.15,2013-11-09 05:02:00,
2013-11-09 00:03:00,33.7,31.6,30.29,South,177,0.0,0.0,92,0.00,,,0.00,Wunderground v.1.15,2013-11-09 05:03:00,
2013-11-09 00:06:00,33.5,31.4,30.29,South,177,0.0,0.0,92,0.00,,,0.00,Wunderground v.1.15,2013-11-09 05:06:00,
2013-11-09 00:08:00,33.4,31.3,30.29,South,177,0.0,0.0,92,0.00,,,0.00,Wunderground v.1.15,2013-11-09 05:08:00,
2013-11-09 00:13:00,33.1,31.3,30.29,South,177,0.0,0.0,93,0.00,,,0.00,Wunderground v.1.15,2013-11-09 05:13:00,
2013-11-09 00:18:00,33.1,31.3,30.28,South,177,0.0,0.0,93,0.00,,,0.00,Wunderground v.1.15,2013-11-09 05:18:00,
2013-11-09 00:23:00,33.1,31.6,30.28,WSW,239,0.0,0.0,94,0.00,,,0.00,Wunderground v.1.15,2013-11-09 05:23:00,
2013-11-09 00:28:00,33.1,31.6,30.28,WSW,239,0.0,0.0,94,0.00,,,0.00,Wunderground v.1.15,2013-11-09 05:28:00,
2013-11-09 00:33:00,33.0,31.2,30.28,WSW,239,0.0,0.0,93,0.00,,,0.00,Wunderground v.1.15,2013-11-09 05:33:00,
2013-11-09 00:38:00,33.1,31.6,30.28,WSW,239,0.0,0.0,94,0.00,,,0.00,Wunderground v.1.15,2013-11-09 05:38:00,
2013-11-09 00:44:00,33.1,31.6,30.28,WSW,239,0.0,0.0,94,0.00,,,0.00,Wunderground v.1.15,2013-11-09 05:44:00,
2013-11-09 00:49:00,33.2,31.7,30.28,WSW,239,0.0,0.0,94,0.00,,,0.00,Wunderground v.1.15,2013-11-09 05:49:00,
2013-11-09 00:54:00,33.2,31.7,30.28,WSW,239,0.0,0.0,94,0.00,,,0.00,Wunderground v.1.15,2013-11-09 05:54:00,
2013-11-09 00:59:00,33.1,31.6,30.28,WSW,239,0.0,0.0,94,0.00,,,0.00,Wunderground v.1.15,2013-11-09 05:59:00,
2013-11-09 01:04:00,33.2,31.9,30.28,WSW,239,0.0,0.0,95,0.00,,,0.00,Wunderground v.1.15,2013-11-09 06:04:00,
2013-11-09 01:09:00,33.2,31.7,30.28,WSW,239,0.0,0.0,94,0.00,,,0.00,Wunderground v.1.15,2013-11-09 06:09:00,
2013-11-09 01:14:00,33.1,31.6,30.29,WSW,239,0.0,0.0,94,0.00,,,0.00,Wunderground v.1.15,2013-11-09 06:14:00,
2013-11-09 01:19:00,33.0,31.5,30.29,WSW,239,0.0,0.0,94,0.00,,,0.00,Wunderground v.1.15,2013-11-09 06:19:00,
2013-11-09 01:24:00,33.1,31.8,30.29,WSW,238,0.0,0.0,95,0.00,,,0.00,Wunderground v.1.15,2013-11-09 06:24:00,
2013-11-09 01:30:00,33.3,32.0,30.28,NE,43,3.0,3.0,95,0.00,,,0.00,Wunderground v.1.15,2013-11-09 06:30:00,
2013-11-09 01:35:00,34.1,32.8,30.28,NE,34,1.0,3.0,95,0.00,,,0.00,Wunderground v.1.15,2013-11-09 06:35:00,
2013-11-09 01:40:00,34.7,33.2,30.28,NE,50,2.0,2.0,94,0.00,,,0.00,Wunderground v.1.15,2013-11-09 06:40:00,
2013-11-09 01:45:00,35.1,33.0,30.29,SW,219,1.0,2.0,92,0.00,,,0.00,Wunderground v.1.15,2013-11-09 06:45:00,
2013-11-09 01:50:00,34.9,32.5,30.29,SW,219,0.0,1.0,91,0.00,,,0.00,Wunderground v.1.15,2013-11-09 06:50:00,
2013-11-09 01:56:00,34.3,31.9,30.29,WSW,239,1.0,1.0,91,0.00,,,0.00,Wunderground v.1.15,2013-11-09 06:56:00,
2013-11-09 02:01:00,33.7,31.4,30.30,SSW,212,0.0,0.0,91,0.00,,,0.00,Wunderground v.1.15,2013-11-09 07:01:00,
2013-11-09 02:06:00,33.2,31.1,30.30,SSW,213,0.0,1.0,92,0.00,,,0.00,Wunderground v.1.15,2013-11-09 07:06:00,
2013-11-09 02:11:00,32.9,31.1,30.30,SW,225,0.0,1.0,93,0.00,,,0.00,Wunderground v.1.15,2013-11-09 07:11:00,
2013-11-09 02:16:00,32.8,31.0,30.30,SW,225,0.0,1.0,93,0.00,,,0.00,Wunderground v.1.15,2013-11-09 07:16:00,
2013-11-09 02:21:00,32.7,30.9,30.30,SW,225,0.0,0.0,93,0.00,,,0.00,Wunderground v.1.15,2013-11-09 07:21:00,
2013-11-09 02:26:00,32.5,31.0,30.30,WSW,245,1.0,2.0,94,0.00,,,0.00,Wunderground v.1.15,2013-11-09 07:26:00,
2013-11-09 02:31:00,32.3,30.8,30.30,WSW,245,0.0,1.0,94,0.00,,,0.00,Wunderground v.1.15,2013-11-09 07:31:00,
2013-11-09 02:36:00,32.3,30.8,30.30,WSW,245,0.0,1.0,94,0.00,,,0.00,Wunderground v.1.15,2013-11-09 07:36:00,
2013-11-09 02:41:00,32.1,30.6,30.30,WSW,245,0.0,0.0,94,0.00,,,0.00,Wunderground v.1.15,2013-11-09 07:41:00,
2013-11-09 02:46:00,32.0,30.7,30.30,WSW,245,0.0,1.0,95,0.00,,,0.00,Wunderground v.1.15,2013-11-09 07:46:00,
2013-11-09 02:51:00,32.1,30.8,30.30,SW,223,0.0,2.0,95,0.00,,,0.00,Wunderground v.1.15,2013-11-09 07:51:00,
2013-11-09 02:56:00,32.1,30.8,30.30,SW,222,1.0,2.0,95,0.00,,,0.00,Wunderground v.1.15,2013-11-09 07:56:00,
2013-11-09 03:01:00,32.0,30.7,30.30,SW,222,0.0,0.0,95,0.00,,,0.00,Wunderground v.1.15,2013-11-09 08:01:00,
2013-11-09 03:06:00,31.9,30.6,30.31,SW,221,0.0,1.0,95,0.00,,,0.00,Wunderground v.1.15,2013-11-09 08:06:00,
2013-11-09 03:11:00,31.8,30.5,30.31,SW,228,1.0,1.0,95,0.00,,,0.00,Wunderground v.1.15,2013-11-09 08:11:00,
2013-11-09 03:16:00,31.9,30.9,30.30,SW,236,0.0,1.0,96,0.00,,,0.00,Wunderground v.1.15,2013-11-09 08:16:00,
2013-11-09 03:21:00,31.9,30.9,30.31,SW,236,0.0,0.0,96,0.00,,,0.00,Wunderground v.1.15,2013-11-09 08:21:00,
2013-11-09 03:26:00,31.7,30.4,30.31,WSW,237,0.0,1.0,95,0.00,,,0.00,Wunderground v.1.15,2013-11-09 08:26:00,
2013-11-09 03:32:00,31.6,30.3,30.31,SW,236,0.0,0.0,95,0.00,,,0.00,Wunderground v.1.15,2013-11-09 08:32:00,
2013-11-09 03:36:00,31.4,30.1,30.31,SW,236,0.0,1.0,95,0.00,,,0.00,Wunderground v.1.15,2013-11-09 08:36:00,
2013-11-09 03:42:00,31.2,29.9,30.31,SW,236,0.0,0.0,95,0.00,,,0.00,Wunderground v.1.15,2013-11-09 08:42:00,
2013-11-09 03:47:00,30.9,29.6,30.31,SW,236,0.0,0.0,95,0.00,,,0.00,Wunderground v.1.15,2013-11-09 08:47:00,
2013-11-09 03:52:00,30.7,29.7,30.31,WSW,237,0.0,0.0,96,0.00,,,0.00,Wunderground v.1.15,2013-11-09 08:52:00,
2013-11-09 03:57:00,30.8,29.8,30.31,SW,236,0.0,0.0,96,0.00,,,0.00,Wunderground v.1.15,2013-11-09 08:57:00,
2013-11-09 04:02:00,30.7,29.7,30.31,SW,232,1.0,1.0,96,0.00,,,0.00,Wunderground v.1.15,2013-11-09 09:02:00,
2013-11-09 04:07:00,30.6,29.6,30.31,SW,221,0.0,2.0,96,0.00,,,0.00,Wunderground v.1.15,2013-11-09 09:07:00,
2013-11-09 04:12:00,30.5,29.5,30.31,WSW,245,1.0,2.0,96,0.00,,,0.00,Wunderground v.1.15,2013-11-09 09:12:00,
2013-11-09 04:17:00,30.5,29.5,30.31,WSW,245,0.0,2.0,96,0.00,,,0.00,Wunderground v.1.15,2013-11-09 09:17:00,
2013-11-09 04:22:00,30.4,29.4,30.30,WSW,238,1.0,1.0,96,0.00,,,0.00,Wunderground v.1.15,2013-11-09 09:22:00,
2013-11-09 04:27:00,30.4,29.4,30.30,SW,228,1.0,2.0,96,0.00,,,0.00,Wunderground v.1.15,2013-11-09 09:27:00,
2013-11-09 04:32:00,30.3,29.3,30.30,SW,233,1.0,1.0,96,0.00,,,0.00,Wunderground v.1.15,2013-11-09 09:32:00,
2013-11-09 04:37:00,30.1,29.4,30.30,SW,226,0.0,1.0,97,0.00,,,0.00,Wunderground v.1.15,2013-11-09 09:37:00,
2013-11-09 04:42:00,30.0,29.0,30.31,SW,226,0.0,1.0,96,0.00,,,0.00,Wunderground v.1.15,2013-11-09 09:42:00,
2013-11-09 04:47:00,29.8,29.1,30.31,SW,226,0.0,1.0,97,0.00,,,0.00,Wunderground v.1.15,2013-11-09 09:47:00,
2013-11-09 04:52:00,29.7,29.0,30.31,SW,226,0.0,0.0,97,0.00,,,0.00,Wunderground v.1.15,2013-11-09 09:52:00,
2013-11-09 04:57:00,29.6,28.9,30.31,SW,226,0.0,0.0,97,0.00,,,0.00,Wunderground v.1.15,2013-11-09 09:57:00,
2013-11-09 05:02:00,29.7,29.0,30.31,SW,226,0.0,0.0,97,0.00,,,0.00,Wunderground v.1.15,2013-11-09 10:02:00,
2013-11-09 05:07:00,30.0,29.3,30.31,SW,226,0.0,1.0,97,0.00,,,0.00,Wunderground v.1.15,2013-11-09 10:07:00,
2013-11-09 05:12:00,30.0,29.3,30.31,SW,226,0.0,0.0,97,0.00,,,0.00,Wunderground v.1.15,2013-11-09 10:12:00,
2013-11-09 05:17:00,30.0,29.3,30.31,SW,226,0.0,1.0,97,0.00,,,0.00,Wunderground v.1.15,2013-11-09 10:17:00,
2013-11-09 05:22:00,30.1,29.4,30.31,SW,226,0.0,0.0,97,0.00,,,0.00,Wunderground v.1.15,2013-11-09 10:22:00,
2013-11-09 05:27:00,30.0,29.3,30.31,SW,226,0.0,0.0,97,0.00,,,0.00,Wunderground v.1.15,2013-11-09 10:27:00,
2013-11-09 05:32:00,29.8,29.1,30.32,SW,229,0.0,1.0,97,0.00,,,0.00,Wunderground v.1.15,2013-11-09 10:32:00,
2013-11-09 05:37:00,29.6,28.9,30.32,SW,228,0.0,1.0,97,0.00,,,0.00,Wunderground v.1.15,2013-11-09 10:37:00,
2013-11-09 05:42:00,29.4,28.7,30.32,SW,228,0.0,0.0,97,0.00,,,0.00,Wunderground v.1.15,2013-11-09 10:42:00,
2013-11-09 05:47:00,29.4,28.7,30.32,SW,228,0.0,0.0,97,0.00,,,0.00,Wunderground v.1.15,2013-11-09 10:47:00,
2013-11-09 05:52:00,29.4,28.7,30.32,SW,228,0.0,0.0,97,0.00,,,0.00,Wunderground v.1.15,2013-11-09 10:52:00,
2013-11-09 05:57:00,29.4,28.9,30.32,SW,233,1.0,1.0,98,0.00,,,0.00,Wunderground v.1.15,2013-11-09 10:57:00,
2013-11-09 06:02:00,29.4,28.7,30.32,SW,233,0.0,0.0,97,0.00,,,0.00,Wunderground v.1.15,2013-11-09 11:02:00,
2013-11-09 06:07:00,29.0,28.3,30.32,SW,233,0.0,0.0,97,0.00,,,0.00,Wunderground v.1.15,2013-11-09 11:07:00,
2013-11-09 06:12:00,28.7,28.0,30.32,SW,233,0.0,0.0,97,0.00,,,0.00,Wunderground v.1.15,2013-11-09 11:12:00,
2013-11-09 06:17:00,28.5,27.8,30.32,SW,233,0.0,0.0,97,0.00,,,0.00,Wunderground v.1.15,2013-11-09 11:17:00,
2013-11-09 06:22:00,28.6,28.1,30.32,SW,233,0.0,0.0,98,0.00,,,0.00,Wunderground v.1.15,2013-11-09 11:22:00,
2013-11-09 06:27:00,28.7,28.2,30.32,SW,233,0.0,1.0,98,0.00,,,0.00,Wunderground v.1.15,2013-11-09 11:27:00,
2013-11-09 06:32:00,28.8,28.3,30.32,SW,233,0.0,1.0,98,0.00,,,0.00,Wunderground v.1.15,2013-11-09 11:32:00,
2013-11-09 06:37:00,28.9,28.4,30.32,SW,233,0.0,1.0,98,0.00,,,0.00,Wunderground v.1.15,2013-11-09 11:37:00,
2013-11-09 06:42:00,29.1,28.6,30.32,SW,233,0.0,0.0,98,0.00,,,0.00,Wunderground v.1.15,2013-11-09 11:42:00,
2013-11-09 06:47:00,29.2,28.7,30.33,SW,233,0.0,0.0,98,0.00,,,0.00,Wunderground v.1.15,2013-11-09 11:47:00,
2013-11-09 06:52:00,29.1,28.6,30.32,SW,233,0.0,0.0,98,0.00,,,0.00,Wunderground v.1.15,2013-11-09 11:52:00,
2013-11-09 06:57:00,29.0,28.5,30.32,SW,233,0.0,0.0,98,0.00,,,0.00,Wunderground v.1.15,2013-11-09 11:57:00,
2013-11-09 07:02:00,28.8,28.3,30.33,SW,233,0.0,0.0,98,0.00,,,0.00,Wunderground v.1.15,2013-11-09 12:02:00,
2013-11-09 07:07:00,28.6,28.1,30.32,SW,233,0.0,0.0,98,0.00,,,0.00,Wunderground v.1.15,2013-11-09 12:07:00,
2013-11-09 07:12:00,28.6,28.1,30.33,SW,234,0.0,1.0,98,0.00,,,0.00,Wunderground v.1.15,2013-11-09 12:12:00,
2013-11-09 07:17:00,28.6,28.1,30.33,SW,233,0.0,1.0,98,0.00,,,0.00,Wunderground v.1.15,2013-11-09 12:17:00,
2013-11-09 07:22:00,28.7,28.2,30.32,SW,233,0.0,1.0,98,0.00,,,0.00,Wunderground v.1.15,2013-11-09 12:22:00,
2013-11-09 07:27:00,29.1,28.6,30.33,SW,233,0.0,1.0,98,0.00,,,0.00,Wunderground v.1.15,2013-11-09 12:27:00,
2013-11-09 07:32:00,29.3,28.8,30.33,SW,233,0.0,0.0,98,0.00,,,0.00,Wunderground v.1.15,2013-11-09 12:32:00,
2013-11-09 07:37:00,29.6,29.1,30.33,SW,233,0.0,1.0,98,0.00,,,0.00,Wunderground v.1.15,2013-11-09 12:37:00,
2013-11-09 07:42:00,29.7,29.2,30.33,SW,233,0.0,0.0,98,0.00,,,0.00,Wunderground v.1.15,2013-11-09 12:42:00,
2013-11-09 07:47:00,29.9,29.4,30.33,SW,233,0.0,0.0,98,0.00,,,0.00,Wunderground v.1.15,2013-11-09 12:47:00,
2013-11-09 07:52:00,30.1,29.6,30.33,SW,233,0.0,0.0,98,0.00,,,0.00,Wunderground v.1.15,2013-11-09 12:52:00,
2013-11-09 07:57:00,30.4,29.9,30.33,SW,233,0.0,0.0,98,0.00,,,0.00,Wunderground v.1.15,2013-11-09 12:57:00,
2013-11-09 08:02:00,30.5,30.0,30.34,SW,233,0.0,0.0,98,0.00,,,0.00,Wunderground v.1.15,2013-11-09 13:02:00,
2013-11-09 08:07:00,30.7,30.2,30.34,SW,233,0.0,0.0,98,0.00,,,0.00,Wunderground v.1.15,2013-11-09 13:07:00,
2013-11-09 08:12:00,30.8,30.3,30.34,SW,233,0.0,0.0,98,0.00,,,0.00,Wunderground v.1.15,2013-11-09 13:12:00,
2013-11-09 08:17:00,31.1,30.9,30.34,SW,233,0.0,0.0,99,0.00,,,0.00,Wunderground v.1.15,2013-11-09 13:17:00,
2013-11-09 08:22:00,31.3,31.1,30.34,SW,233,1.0,1.0,99,0.00,,,0.00,Wunderground v.1.15,2013-11-09 13:22:00,
2013-11-09 08:27:00,31.5,31.3,30.34,SW,236,1.0,1.0,99,0.00,,,0.00,Wunderground v.1.15,2013-11-09 13:27:00,
2013-11-09 08:32:00,31.7,31.5,30.34,WSW,237,0.0,1.0,99,0.00,,,0.00,Wunderground v.1.15,2013-11-09 13:32:00,
2013-11-09 08:37:00,31.9,31.7,30.34,SW,236,0.0,1.0,99,0.00,,,0.00,Wunderground v.1.15,2013-11-09 13:37:00,
2013-11-09 08:42:00,32.1,31.9,30.34,SW,236,0.0,0.0,99,0.00,,,0.00,Wunderground v.1.15,2013-11-09 13:42:00,
2013-11-09 08:47:00,32.4,32.2,30.35,WSW,239,0.0,1.0,99,0.00,,,0.00,Wunderground v.1.15,2013-11-09 13:47:00,
2013-11-09 08:52:00,32.9,32.7,30.35,WSW,240,1.0,1.0,99,0.00,,,0.00,Wunderground v.1.15,2013-11-09 13:52:00,
2013-11-09 08:57:00,33.4,33.1,30.35,WSW,241,0.0,1.0,99,0.00,,,0.00,Wunderground v.1.15,2013-11-09 13:57:00,
2013-11-09 09:02:00,34.0,33.7,30.35,WSW,255,0.0,1.0,99,0.00,,,0.00,Wunderground v.1.15,2013-11-09 14:02:00,
2013-11-09 09:07:00,34.6,34.3,30.35,WSW,243,0.0,1.0,99,0.00,,,0.00,Wunderground v.1.15,2013-11-09 14:07:00,
2013-11-09 09:12:00,35.2,34.9,30.35,WSW,243,0.0,1.0,99,0.00,,,0.00,Wunderground v.1.15,2013-11-09 14:12:00,
2013-11-09 09:17:00,35.9,35.6,30.35,WSW,243,0.0,1.0,99,0.00,,,0.00,Wunderground v.1.15,2013-11-09 14:17:00,
2013-11-09 09:22:00,36.6,36.3,30.35,WSW,240,1.0,1.0,99,0.00,,,0.00,Wunderground v.1.15,2013-11-09 14:22:00,
2013-11-09 09:27:00,37.7,37.2,30.35,West,276,0.0,2.0,98,0.00,,,0.00,Wunderground v.1.15,2013-11-09 14:27:00,
2013-11-09 09:32:00,38.6,38.1,30.35,North,4,0.0,1.0,98,0.00,,,0.00,Wunderground v.1.15,2013-11-09 14:32:00,
2013-11-09 09:37:00,39.3,38.3,30.35,NE,45,1.0,2.0,96,0.00,,,0.00,Wunderground v.1.15,2013-11-09 14:37:00,
2013-11-09 09:42:00,40.3,39.0,30.35,NE,46,0.0,1.0,95,0.00,,,0.00,Wunderground v.1.15,2013-11-09 14:42:00,
2013-11-09 09:47:00,41.5,39.1,30.35,WSW,239,0.0,1.0,91,0.00,,,0.00,Wunderground v.1.15,2013-11-09 14:47:00,
2013-11-09 09:52:00,42.6,39.6,30.35,SW,229,2.0,2.0,89,0.00,,,0.00,Wunderground v.1.15,2013-11-09 14:52:00,
2013-11-09 09:57:00,43.8,39.9,30.35,WSW,245,0.0,2.0,86,0.00,,,0.00,Wunderground v.1.15,2013-11-09 14:57:00,
2013-11-09 10:02:00,45.2,40.3,30.35,West,266,1.0,1.0,83,0.00,,,0.00,Wunderground v.1.15,2013-11-09 15:02:00,
2013-11-09 10:07:00,46.7,38.9,30.35,WSW,250,3.0,6.0,74,0.00,,,0.00,Wunderground v.1.15,2013-11-09 15:07:00,
2013-11-09 10:12:00,47.9,36.7,30.35,WSW,248,6.0,10.0,65,0.00,,,0.00,Wunderground v.1.15,2013-11-09 15:12:00,
2013-11-09 10:17:00,48.9,37.3,30.34,SW,228,4.0,10.0,64,0.00,,,0.00,Wunderground v.1.15,2013-11-09 15:17:00,
2013-11-09 10:22:00,49.9,37.4,30.34,WNW,293,2.0,6.0,62,0.00,,,0.00,Wunderground v.1.15,2013-11-09 15:22:00,
2013-11-09 10:27:00,50.8,37.8,30.34,SSW,203,2.0,7.0,61,0.00,,,0.00,Wunderground v.1.15,2013-11-09 15:27:00,
2013-11-09 10:32:00,51.2,37.4,30.34,WSW,238,3.0,4.0,59,0.00,,,0.00,Wunderground v.1.15,2013-11-09 15:32:00,
2013-11-09 10:37:00,51.6,38.6,30.34,SE,141,0.0,4.0,61,0.00,,,0.00,Wunderground v.1.15,2013-11-09 15:37:00,
2013-11-09 10:42:00,52.0,37.7,30.34,WSW,252,3.0,4.0,58,0.00,,,0.00,Wunderground v.1.15,2013-11-09 15:42:00,
2013-11-09 10:47:00,52.3,37.5,30.34,WSW,245,4.0,4.0,57,0.00,,,0.00,Wunderground v.1.15,2013-11-09 15:47:00,
2013-11-09 10:52:00,52.6,36.9,30.34,West,270,2.0,4.0,55,0.00,,,0.00,Wunderground v.1.15,2013-11-09 15:52:00,
2013-11-09 10:57:00,52.7,37.9,30.34,West,271,1.0,5.0,57,0.00,,,0.00,Wunderground v.1.15,2013-11-09 15:57:00,
2013-11-09 11:02:00,52.8,37.1,30.34,WSW,246,1.0,4.0,55,0.00,,,0.00,Wunderground v.1.15,2013-11-09 16:02:00,
2013-11-09 11:07:00,52.9,36.7,30.34,SW,233,9.0,11.0,54,0.00,,,0.00,Wunderground v.1.15,2013-11-09 16:07:00,
2013-11-09 11:12:00,53.9,35.7,30.34,WSW,250,11.0,13.0,50,0.00,,,0.00,Wunderground v.1.15,2013-11-09 16:12:00,
2013-11-09 11:17:00,54.7,37.4,30.33,WSW,252,7.0,14.0,52,0.00,,,0.00,Wunderground v.1.15,2013-11-09 16:17:00,
2013-11-09 11:22:00,55.2,35.8,30.33,WSW,255,8.0,12.0,48,0.00,,,0.00,Wunderground v.1.15,2013-11-09 16:22:00,
2013-11-09 11:27:00,55.4,36.5,30.33,WSW,242,9.0,16.0,49,0.00,,,0.00,Wunderground v.1.15,2013-11-09 16:27:00,
2013-11-09 11:32:00,55.6,36.2,30.32,SW,226,7.0,14.0,48,0.00,,,0.00,Wunderground v.1.15,2013-11-09 16:32:00,
2013-11-09 11:37:00,56.1,36.7,30.32,SW,217,3.0,14.0,48,0.00,,,0.00,Wunderground v.1.15,2013-11-09 16:37:00,
2013-11-09 11:42:00,56.2,35.7,30.32,WSW,250,10.0,13.0,46,0.00,,,0.00,Wunderground v.1.15,2013-11-09 16:42:00,
2013-11-09 11:47:00,56.2,36.8,30.32,WSW,255,7.0,13.0,48,0.00,,,0.00,Wunderground v.1.15,2013-11-09 16:47:00,
2013-11-09 11:52:00,56.3,35.8,30.33,WSW,257,10.0,11.0,46,0.00,,,0.00,Wunderground v.1.15,2013-11-09 16:52:00,
2013-11-09 11:57:00,56.3,35.2,30.33,West,278,8.0,14.0,45,0.00,,,0.00,Wunderground v.1.15,2013-11-09 16:57:00,
2013-11-09 12:02:00,56.3,34.6,30.32,West,260,9.0,14.0,44,0.00,,,0.00,Wunderground v.1.15,2013-11-09 17:02:00,
2013-11-09 12:07:00,56.6,34.9,30.31,WNW,284,9.0,14.0,44,0.00,,,0.00,Wunderground v.1.15,2013-11-09 17:07:00,
2013-11-09 12:12:00,56.6,34.9,30.31,WSW,238,11.0,16.0,44,0.00,,,0.00,Wunderground v.1.15,2013-11-09 17:12:00,
2013-11-09 12:17:00,56.5,34.8,30.31,SW,236,9.0,16.0,44,0.00,,,0.00,Wunderground v.1.15,2013-11-09 17:17:00,
2013-11-09 12:22:00,56.6,34.9,30.32,WSW,252,9.0,13.0,44,0.00,,,0.00,Wunderground v.1.15,2013-11-09 17:22:00,
2013-11-09 12:27:00,56.5,34.3,30.31,West,260,13.0,19.0,43,0.00,,,0.00,Wunderground v.1.15,2013-11-09 17:27:00,
2013-11-09 12:32:00,56.3,34.1,30.31,WSW,257,13.0,15.0,43,0.00,,,0.00,Wunderground v.1.15,2013-11-09 17:32:00,
2013-11-09 12:37:00,56.2,34.0,30.31,WSW,252,10.0,16.0,43,0.00,,,0.00,Wunderground v.1.15,2013-11-09 17:37:00,
2013-11-09 12:42:00,56.3,34.1,30.31,West,269,9.0,16.0,43,0.00,,,0.00,Wunderground v.1.15,2013-11-09 17:42:00,
2013-11-09 12:47:00,56.4,34.7,30.30,West,269,8.0,16.0,44,0.00,,,0.00,Wunderground v.1.15,2013-11-09 17:47:00,
2013-11-09 12:52:00,56.7,34.4,30.31,West,266,8.0,13.0,43,0.00,,,0.00,Wunderground v.1.15,2013-11-09 17:52:00,
2013-11-09 12:57:00,57.0,34.7,30.30,West,276,10.0,16.0,43,0.00,,,0.00,Wunderground v.1.15,2013-11-09 17:57:00,
2013-11-09 13:02:00,57.0,33.5,30.30,WSW,252,9.0,16.0,41,0.00,,,0.00,Wunderground v.1.15,2013-11-09 18:02:00,
2013-11-09 13:07:00,56.9,33.4,30.30,West,281,9.0,17.0,41,0.00,,,0.00,Wunderground v.1.15,2013-11-09 18:07:00,
2013-11-09 13:12:00,56.8,33.3,30.30,West,281,8.0,12.0,41,0.00,,,0.00,Wunderground v.1.15,2013-11-09 18:12:00,
2013-11-09 13:17:00,56.7,33.8,30.29,NW,304,11.0,14.0,42,0.00,,,0.00,Wunderground v.1.15,2013-11-09 18:17:00,
2013-11-09 13:22:00,56.6,33.8,30.29,West,281,7.0,12.0,42,0.00,,,0.00,Wunderground v.1.15,2013-11-09 18:22:00,
2013-11-09 13:27:00,56.5,34.3,30.29,West,280,10.0,13.0,43,0.00,,,0.00,Wunderground v.1.15,2013-11-09 18:27:00,
2013-11-09 13:32:00,56.5,34.3,30.29,West,277,5.0,9.0,43,0.00,,,0.00,Wunderground v.1.15,2013-11-09 18:32:00,
2013-11-09 13:37:00,56.6,34.3,30.29,West,276,5.0,9.0,43,0.00,,,0.00,Wunderground v.1.15,2013-11-09 18:37:00,
2013-11-09 13:42:00,56.5,34.3,30.29,West,276,10.0,10.0,43,0.00,,,0.00,Wunderground v.1.15,2013-11-09 18:42:00,
2013-11-09 13:47:00,56.5,34.3,30.29,West,278,7.0,11.0,43,0.00,,,0.00,Wunderground v.1.15,2013-11-09 18:47:00,
2013-11-09 13:52:00,56.4,34.2,30.29,WNW,287,8.0,9.0,43,0.00,,,0.00,Wunderground v.1.15,2013-11-09 18:52:00,
2013-11-09 13:57:00,56.4,33.6,30.29,West,269,5.0,9.0,42,0.00,,,0.00,Wunderground v.1.15,2013-11-09 18:57:00,
2013-11-09 14:02:00,56.3,34.6,30.29,West,267,5.0,7.0,44,0.00,,,0.00,Wunderground v.1.15,2013-11-09 19:02:00,
2013-11-09 14:07:00,56.2,33.4,30.29,WNW,282,5.0,10.0,42,0.00,,,0.00,Wunderground v.1.15,2013-11-09 19:07:00,
2013-11-09 14:12:00,56.1,33.9,30.30,West,266,9.0,11.0,43,0.00,,,0.00,Wunderground v.1.15,2013-11-09 19:12:00,
2013-11-09 14:17:00,56.1,33.3,30.30,West,267,11.0,13.0,42,0.00,,,0.00,Wunderground v.1.15,2013-11-09 19:17:00,
2013-11-09 14:22:00,56.1,33.3,30.30,West,277,7.0,11.0,42,0.00,,,0.00,Wunderground v.1.15,2013-11-09 19:22:00,
2013-11-09 14:27:00,56.1,33.3,30.30,WSW,249,6.0,12.0,42,0.00,,,0.00,Wunderground v.1.15,2013-11-09 19:27:00,
2013-11-09 14:32:00,56.1,33.3,30.30,West,274,10.0,13.0,42,0.00,,,0.00,Wunderground v.1.15,2013-11-09 19:32:00,
2013-11-09 14:37:00,56.1,34.5,30.29,West,262,6.0,13.0,44,0.00,,,0.00,Wunderground v.1.15,2013-11-09 19:37:00,
2013-11-09 14:42:00,56.1,35.0,30.28,WSW,249,7.0,8.0,45,0.00,,,0.00,Wunderground v.1.15,2013-11-09 19:42:00,
2013-11-09 14:47:00,56.1,34.5,30.28,West,266,7.0,11.0,44,0.00,,,0.00,Wunderground v.1.15,2013-11-09 19:47:00,
2013-11-09 14:52:00,56.1,35.0,30.27,West,264,5.0,6.0,45,0.00,,,0.00,Wunderground v.1.15,2013-11-09 19:52:00,
2013-11-09 14:57:00,56.0,34.4,30.26,WNW,284,1.0,8.0,44,0.00,,,0.00,Wunderground v.1.15,2013-11-09 19:57:00,
2013-11-09 15:02:00,56.2,34.6,30.26,West,262,4.0,5.0,44,0.00,,,0.00,Wunderground v.1.15,2013-11-09 20:02:00,
2013-11-09 15:07:00,56.4,33.6,30.26,West,276,7.0,10.0,42,0.00,,,0.00,Wunderground v.1.15,2013-11-09 20:07:00,
2013-11-09 15:12:00,56.3,33.5,30.27,West,273,9.0,12.0,42,0.00,,,0.00,Wunderground v.1.15,2013-11-09 20:12:00,
2013-11-09 15:17:00,56.3,34.1,30.27,WSW,252,6.0,12.0,43,0.00,,,0.00,Wunderground v.1.15,2013-11-09 20:17:00,
2013-11-09 15:22:00,56.3,34.1,30.27,WNW,284,6.0,8.0,43,0.00,,,0.00,Wunderground v.1.15,2013-11-09 20:22:00,
2013-11-09 15:27:00,56.4,33.6,30.26,NW,321,4.0,8.0,42,0.00,,,0.00,Wunderground v.1.15,2013-11-09 20:27:00,
2013-11-09 15:32:00,56.4,34.2,30.26,West,264,6.0,8.0,43,0.00,,,0.00,Wunderground v.1.15,2013-11-09 20:32:00,
2013-11-09 15:37:00,56.5,34.3,30.26,WNW,289,4.0,8.0,43,0.00,,,0.00,Wunderground v.1.15,2013-11-09 20:37:00,
2013-11-09 15:42:00,56.6,33.8,30.25,WNW,298,5.0,8.0,42,0.00,,,0.00,Wunderground v.1.15,2013-11-09 20:42:00,
2013-11-09 15:47:00,56.5,33.7,30.25,WNW,295,3.0,8.0,42,0.00,,,0.00,Wunderground v.1.15,2013-11-09 20:47:00,
2013-11-09 15:52:00,56.5,33.7,30.24,WSW,256,3.0,6.0,42,0.00,,,0.00,Wunderground v.1.15,2013-11-09 20:52:00,
2013-11-09 15:57:00,56.4,34.2,30.24,West,269,5.0,6.0,43,0.00,,,0.00,Wunderground v.1.15,2013-11-09 20:57:00,
2013-11-09 16:02:00,56.4,34.2,30.23,WSW,255,4.0,6.0,43,0.00,,,0.00,Wunderground v.1.15,2013-11-09 21:02:00,
2013-11-09 16:07:00,56.3,35.2,30.23,WSW,239,4.0,6.0,45,0.00,,,0.00,Wunderground v.1.15,2013-11-09 21:07:00,
2013-11-09 16:12:00,56.3,35.2,30.23,WSW,250,4.0,5.0,45,0.00,,,0.00,Wunderground v.1.15,2013-11-09 21:12:00,
2013-11-09 16:17:00,56.2,35.7,30.23,West,266,1.0,6.0,46,0.00,,,0.00,Wunderground v.1.15,2013-11-09 21:17:00,
2013-11-09 16:22:00,56.2,35.7,30.23,SW,236,4.0,5.0,46,0.00,,,0.00,Wunderground v.1.15,2013-11-09 21:22:00,
2013-11-09 16:27:00,56.1,35.0,30.23,West,263,4.0,8.0,45,0.00,,,0.00,Wunderground v.1.15,2013-11-09 21:27:00,
2013-11-09 16:32:00,56.0,35.5,30.24,WSW,257,5.0,7.0,46,0.00,,,0.00,Wunderground v.1.15,2013-11-09 21:32:00,
2013-11-09 16:37:00,55.9,35.9,30.24,West,259,4.0,7.0,47,0.00,,,0.00,Wunderground v.1.15,2013-11-09 21:37:00,
2013-11-09 16:42:00,55.9,35.9,30.24,WSW,253,3.0,5.0,47,0.00,,,0.00,Wunderground v.1.15,2013-11-09 21:42:00,
2013-11-09 16:47:00,55.9,35.9,30.24,West,262,5.0,5.0,47,0.00,,,0.00,Wunderground v.1.15,2013-11-09 21:47:00,
2013-11-09 16:52:00,55.8,35.9,30.24,West,263,4.0,6.0,47,0.00,,,0.00,Wunderground v.1.15,2013-11-09 21:52:00,
2013-11-09 16:57:00,55.7,35.8,30.25,West,263,5.0,7.0,47,0.00,,,0.00,Wunderground v.1.15,2013-11-09 21:57:00,
2013-11-09 17:02:00,55.7,35.8,30.24,West,259,3.0,5.0,47,0.00,,,0.00,Wunderground v.1.15,2013-11-09 22:02:00,
2013-11-09 17:07:00,55.5,36.1,30.24,West,269,3.0,5.0,48,0.00,,,0.00,Wunderground v.1.15,2013-11-09 22:07:00,
2013-11-09 17:12:00,55.4,36.0,30.24,West,273,4.0,5.0,48,0.00,,,0.00,Wunderground v.1.15,2013-11-09 22:12:00,
2013-11-09 17:17:00,55.1,36.8,30.24,West,264,2.0,5.0,50,0.00,,,0.00,Wunderground v.1.15,2013-11-09 22:17:00,
2013-11-09 17:22:00,54.9,36.6,30.24,West,271,4.0,7.0,50,0.00,,,0.00,Wunderground v.1.15,2013-11-09 22:22:00,
2013-11-09 17:27:00,54.9,36.1,30.24,West,264,3.0,7.0,49,0.00,,,0.00,Wunderground v.1.15,2013-11-09 22:27:00,
2013-11-09 17:32:00,54.7,36.9,30.24,West,276,4.0,4.0,51,0.00,,,0.00,Wunderground v.1.15,2013-11-09 22:32:00,
2013-11-09 17:37:00,54.6,36.8,30.24,West,267,2.0,4.0,51,0.00,,,0.00,Wunderground v.1.15,2013-11-09 22:37:00,
2013-11-09 17:42:00,54.3,37.0,30.24,West,277,0.0,2.0,52,0.00,,,0.00,Wunderground v.1.15,2013-11-09 22:42:00,
2013-11-09 17:47:00,54.0,36.8,30.25,West,277,0.0,2.0,52,0.00,,,0.00,Wunderground v.1.15,2013-11-09 22:47:00,
2013-11-09 17:52:00,53.7,36.5,30.25,West,277,0.0,1.0,52,0.00,,,0.00,Wunderground v.1.15,2013-11-09 22:52:00,
2013-11-09 17:57:00,53.6,36.9,30.25,West,277,0.0,1.0,53,0.00,,,0.00,Wunderground v.1.15,2013-11-09 22:57:00,
2013-11-09 18:02:00,53.5,36.8,30.25,West,277,1.0,1.0,53,0.00,,,0.00,Wunderground v.1.15,2013-11-09 23:02:00,
2013-11-09 18:07:00,53.5,36.8,30.25,West,276,0.0,1.0,53,0.00,,,0.00,Wunderground v.1.15,2013-11-09 23:07:00,
2013-11-09 18:12:00,53.5,36.3,30.25,WSW,253,1.0,2.0,52,0.00,,,0.00,Wunderground v.1.15,2013-11-09 23:12:00,
2013-11-09 18:17:00,53.5,36.8,30.25,West,267,2.0,3.0,53,0.00,,,0.00,Wunderground v.1.15,2013-11-09 23:17:00,
2013-11-09 18:22:00,53.7,36.5,30.25,WSW,253,2.0,3.0,52,0.00,,,0.00,Wunderground v.1.15,2013-11-09 23:22:00,
2013-11-09 18:27:00,53.8,36.1,30.25,West,276,2.0,5.0,51,0.00,,,0.00,Wunderground v.1.15,2013-11-09 23:27:00,
2013-11-09 18:32:00,53.9,36.2,30.25,WSW,256,4.0,6.0,51,0.00,,,0.00,Wunderground v.1.15,2013-11-09 23:32:00,
2013-11-09 18:37:00,53.9,36.7,30.25,West,269,1.0,6.0,52,0.00,,,0.00,Wunderground v.1.15,2013-11-09 23:37:00,
2013-11-09 18:42:00,53.7,36.0,30.25,West,280,3.0,4.0,51,0.00,,,0.00,Wunderground v.1.15,2013-11-09 23:42:00,
2013-11-09 18:47:00,53.9,36.2,30.25,West,270,2.0,4.0,51,0.00,,,0.00,Wunderground v.1.15,2013-11-09 23:47:00,
2013-11-09 18:52:00,53.7,36.5,30.26,West,281,1.0,2.0,52,0.00,,,0.00,Wunderground v.1.15,2013-11-09 23:52:00,
2013-11-09 18:57:00,53.5,36.8,30.27,WNW,301,2.0,2.0,53,0.00,,,0.00,Wunderground v.1.15,2013-11-09 23:57:00,
2013-11-09 19:02:00,53.4,36.7,30.27,WNW,290,3.0,4.0,53,0.00,,,0.00,Wunderground v.1.15,2013-11-10 00:02:00,
2013-11-09 19:07:00,53.4,36.2,30.27,West,281,1.0,4.0,52,0.00,,,0.00,Wunderground v.1.15,2013-11-10 00:07:00,
2013-11-09 19:12:00,53.4,36.7,30.28,West,276,2.0,3.0,53,0.00,,,0.00,Wunderground v.1.15,2013-11-10 00:12:00,
2013-11-09 19:17:00,53.3,36.6,30.28,West,280,4.0,5.0,53,0.00,,,0.00,Wunderground v.1.15,2013-11-10 00:17:00,
2013-11-09 19:22:00,53.0,36.8,30.28,West,259,3.0,5.0,54,0.00,,,0.00,Wunderground v.1.15,2013-11-10 00:22:00,
2013-11-09 19:27:00,53.0,36.8,30.28,WSW,249,3.0,5.0,54,0.00,,,0.00,Wunderground v.1.15,2013-11-10 00:27:00,
2013-11-09 19:32:00,52.8,36.6,30.28,WSW,256,4.0,4.0,54,0.00,,,0.00,Wunderground v.1.15,2013-11-10 00:32:00,
2013-11-09 19:37:00,52.6,36.9,30.28,WSW,237,5.0,6.0,55,0.00,,,0.00,Wunderground v.1.15,2013-11-10 00:37:00,
2013-11-09 19:42:00,52.3,37.1,30.28,WSW,257,5.0,5.0,56,0.00,,,0.00,Wunderground v.1.15,2013-11-10 00:42:00,
2013-11-09 19:47:00,52.1,36.9,30.28,West,261,2.0,5.0,56,0.00,,,0.00,Wunderground v.1.15,2013-11-10 00:47:00,
2013-11-09 19:52:00,52.0,36.8,30.28,WSW,256,2.0,4.0,56,0.00,,,0.00,Wunderground v.1.15,2013-11-10 00:52:00,
2013-11-09 19:57:00,51.9,36.7,30.27,WSW,256,0.0,4.0,56,0.00,,,0.00,Wunderground v.1.15,2013-11-10 00:57:00,
2013-11-09 20:02:00,51.6,36.4,30.28,WSW,241,0.0,2.0,56,0.00,,,0.00,Wunderground v.1.15,2013-11-10 01:02:00,
2013-11-09 20:07:00,51.4,36.7,30.28,WSW,248,0.0,2.0,57,0.00,,,0.00,Wunderground v.1.15,2013-11-10 01:07:00,
2013-11-09 20:12:00,51.1,36.4,30.28,West,260,0.0,1.0,57,0.00,,,0.00,Wunderground v.1.15,2013-11-10 01:12:00,
2013-11-09 20:17:00,50.6,36.4,30.28,SW,236,1.0,1.0,58,0.00,,,0.00,Wunderground v.1.15,2013-11-10 01:17:00,
2013-11-09 20:22:00,49.9,37.0,30.28,WSW,238,0.0,1.0,61,0.00,,,0.00,Wunderground v.1.15,2013-11-10 01:22:00,
2013-11-09 20:27:00,49.3,36.8,30.28,WSW,237,0.0,1.0,62,0.00,,,0.00,Wunderground v.1.15,2013-11-10 01:27:00,
2013-11-09 20:32:00,48.7,36.3,30.27,WSW,238,0.0,0.0,62,0.00,,,0.00,Wunderground v.1.15,2013-11-10 01:32:00,
2013-11-09 20:37:00,48.1,36.9,30.27,WSW,238,0.0,0.0,65,0.00,,,0.00,Wunderground v.1.15,2013-11-10 01:37:00,
2013-11-09 20:42:00,47.7,36.9,30.27,WSW,238,0.0,1.0,66,0.00,,,0.00,Wunderground v.1.15,2013-11-10 01:42:00,
2013-11-09 20:47:00,47.3,36.9,30.28,WSW,238,0.0,1.0,67,0.00,,,0.00,Wunderground v.1.15,2013-11-10 01:47:00,
2013-11-09 20:52:00,46.9,37.3,30.28,WSW,238,0.0,0.0,69,0.00,,,0.00,Wunderground v.1.15,2013-11-10 01:52:00,
2013-11-09 20:57:00,46.5,37.2,30.28,WSW,238,0.0,0.0,70,0.00,,,0.00,Wunderground v.1.15,2013-11-10 01:57:00,
2013-11-09 21:02:00,46.1,36.9,30.27,WSW,237,0.0,0.0,70,0.00,,,0.00,Wunderground v.1.15,2013-11-10 02:02:00,
2013-11-09 21:07:00,45.7,36.8,30.28,WSW,238,0.0,0.0,71,0.00,,,0.00,Wunderground v.1.15,2013-11-10 02:07:00,
2013-11-09 21:12:00,45.3,36.8,30.28,WSW,238,0.0,0.0,72,0.00,,,0.00,Wunderground v.1.15,2013-11-10 02:12:00,
2013-11-09 21:17:00,45.0,36.5,30.28,WSW,238,0.0,0.0,72,0.00,,,0.00,Wunderground v.1.15,2013-11-10 02:17:00,
2013-11-09 21:22:00,44.6,36.5,30.29,WSW,238,0.0,0.0,73,0.00,,,0.00,Wunderground v.1.15,2013-11-10 02:22:00,
2013-11-09 21:27:00,44.5,36.7,30.29,WSW,238,0.0,0.0,74,0.00,,,0.00,Wunderground v.1.15,2013-11-10 02:27:00,
2013-11-09 21:32:00,44.7,37.3,30.29,WSW,238,1.0,1.0,75,0.00,,,0.00,Wunderground v.1.15,2013-11-10 02:32:00,
2013-11-09 21:37:00,44.6,37.2,30.29,WSW,246,2.0,2.0,75,0.00,,,0.00,Wunderground v.1.15,2013-11-10 02:37:00,
2013-11-09 21:42:00,44.1,37.3,30.29,WSW,256,2.0,2.0,77,0.00,,,0.00,Wunderground v.1.15,2013-11-10 02:42:00,
2013-11-09 21:47:00,43.5,37.1,30.28,SSW,204,0.0,2.0,78,0.00,,,0.00,Wunderground v.1.15,2013-11-10 02:47:00,
2013-11-09 21:52:00,43.3,36.9,30.28,West,262,1.0,1.0,78,0.00,,,0.00,Wunderground v.1.15,2013-11-10 02:52:00,
2013-11-09 21:57:00,43.3,37.2,30.27,SW,224,0.0,2.0,79,0.00,,,0.00,Wunderground v.1.15,2013-11-10 02:57:00,
2013-11-09 22:02:00,43.3,37.2,30.28,WSW,249,1.0,1.0,79,0.00,,,0.00,Wunderground v.1.15,2013-11-10 03:02:00,
2013-11-09 22:07:00,43.2,37.4,30.28,WSW,248,0.0,2.0,80,0.00,,,0.00,Wunderground v.1.15,2013-11-10 03:07:00,
2013-11-09 22:12:00,43.3,37.5,30.28,WSW,248,0.0,0.0,80,0.00,,,0.00,Wunderground v.1.15,2013-11-10 03:12:00,
2013-11-09 22:17:00,43.4,37.3,30.27,WSW,248,0.0,0.0,79,0.00,,,0.00,Wunderground v.1.15,2013-11-10 03:17:00,
2013-11-09 22:22:00,43.2,37.1,30.27,WSW,248,0.0,0.0,79,0.00,,,0.00,Wunderground v.1.15,2013-11-10 03:22:00,
2013-11-09 22:27:00,43.0,36.9,30.27,WSW,248,0.0,0.0,79,0.00,,,0.00,Wunderground v.1.15,2013-11-10 03:27:00,
2013-11-09 22:32:00,42.8,37.1,30.27,WSW,248,0.0,0.0,80,0.00,,,0.00,Wunderground v.1.15,2013-11-10 03:32:00,
2013-11-09 22:37:00,42.8,37.4,30.28,WSW,248,1.0,1.0,81,0.00,,,0.00,Wunderground v.1.15,2013-11-10 03:37:00,
2013-11-09 22:42:00,42.6,37.5,30.28,West,265,1.0,1.0,82,0.00,,,0.00,Wunderground v.1.15,2013-11-10 03:42:00,
2013-11-09 22:47:00,42.4,37.6,30.28,West,260,0.0,1.0,83,0.00,,,0.00,Wunderground v.1.15,2013-11-10 03:47:00,
2013-11-09 22:52:00,42.3,37.2,30.28,West,260,0.0,1.0,82,0.00,,,0.00,Wunderground v.1.15,2013-11-10 03:52:00,
2013-11-09 22:57:00,42.1,37.3,30.28,West,260,1.0,1.0,83,0.00,,,0.00,Wunderground v.1.15,2013-11-10 03:57:00,
2013-11-09 23:02:00,42.1,37.3,30.28,West,260,0.0,0.0,83,0.00,,,0.00,Wunderground v.1.15,2013-11-10 04:02:00,
2013-11-09 23:07:00,41.9,37.4,30.28,West,260,0.0,1.0,84,0.00,,,0.00,Wunderground v.1.15,2013-11-10 04:07:00,
2013-11-09 23:12:00,41.8,37.6,30.28,West,260,0.0,0.0,85,0.00,,,0.00,Wunderground v.1.15,2013-11-10 04:12:00,
2013-11-09 23:17:00,41.9,37.7,30.28,West,260,0.0,0.0,85,0.00,,,0.00,Wunderground v.1.15,2013-11-10 04:17:00,
2013-11-09 23:22:00,41.8,37.3,30.28,West,260,0.0,0.0,84,0.00,,,0.00,Wunderground v.1.15,2013-11-10 04:22:00,
2013-11-09 23:27:00,41.7,37.5,30.28,West,260,0.0,0.0,85,0.00,,,0.00,Wunderground v.1.15,2013-11-10 04:27:00,
2013-11-09 23:32:00,41.6,37.4,30.28,West,260,0.0,0.0,85,0.00,,,0.00,Wunderground v.1.15,2013-11-10 04:32:00,
2013-11-09 23:37:00,41.6,37.7,30.27,West,260,0.0,0.0,86,0.00,,,0.00,Wunderground v.1.15,2013-11-10 04:37:00,
2013-11-09 23:42:00,41.6,37.4,30.27,West,260,0.0,0.0,85,0.00,,,0.00,Wunderground v.1.15,2013-11-10 04:42:00,
2013-11-09 23:47:00,41.6,37.4,30.27,West,260,0.0,0.0,85,0.00,,,0.00,Wunderground v.1.15,2013-11-10 04:47:00,
2013-11-09 23:52:00,41.6,37.4,30.27,West,260,0.0,0.0,85,0.00,,,0.00,Wunderground v.1.15,2013-11-10 04:52:00,
2013-11-09 23:57:00,41.8,37.9,30.27,West,260,0.0,0.0,86,0.00,,,0.00,Wunderground v.1.15,2013-11-10 04:57:00,